GFSMW_2pvu_pres_000.txt.gz
Presure
135 177 169 167 169 161 158 161 162 110 158 157 95 153 160 160 96 153 159 148 145 146 145 159 151 137 154 167 165 163 172 161 159 158 170 179 178 187 172 173 194 193 147
147 136 152 164 161 165 154 162 119 150 148 157 159 160 160 116 147 122 143 139 152 159 164 160 147 150 162 172 147 159 172 172 157 147 129 159 157 178 191 189 195 65 192
155 152 152 149 160 163 167 155 150 160 163 169 166 157 141 148 89 139 151 139 136 145 161 152 166 179 166 162 158 167 159 174 172 151 169 159 186 163 172 171 196 199 184
158 145 154 176 161 160 164 169 164 168 167 153 134 111 145 147 161 125 127 153 143 157 167 116 163 160 132 163 152 166 169 173 160 151 149 190 175 169 202 181 194 181 191
109 159 102 104 161 174 159 132 128 128 99 168 157 160 138 168 158 134 95 172 103 106 151 129 173 170 168 167 167 164 145 164 159 176 189 190 169 185 124 198 153 203 188
177 118 121 106 105 106 113 166 169 108 155 128 135 171 168 166 169 109 163 134 142 165 173 168 174 167 167 166 167 178 174 124 107 82 182 175 173 109 66 192 193 189 197
168 104 100 98 180 178 170 101 164 145 146 150 154 174 163 140 149 149 170 163 164 160 167 174 157 168 162 166 179 186 168 140 189 125 176 175 191 65 83 135 197 209 208
96 98 102 177 152 165 150 170 148 161 172 172 166 130 165 145 148 167 172 169 180 176 162 160 165 167 169 187 180 167 185 192 192 175 174 193 196 184 174 141 185 211 198
166 158 155 95 160 167 152 154 167 145 144 145 177 175 77 156 170 167 171 171 163 158 164 172 176 179 182 174 173 190 190 178 168 187 197 192 178 211 203 167 208 207 170
168 114 117 164 169 156 172 154 174 148 104 168 163 174 169 166 179 181 181 170 153 176 175 179 186 175 174 190 183 181 186 184 196 169 179 195 198 128 208 196 194 170 194
143 150 160 169 175 177 145 165 151 167 176 163 167 170 169 182 179 168 163 158 177 177 189 157 178 183 194 197 188 183 206 182 168 226 218 152 163 222 186 155 168 227 200
167 170 137 171 141 155 135 136 174 168 179 163 161 182 181 171 163 172 175 176 190 135 129 187 189 196 185 160 213 203 141 207 159 146 141 153 195 163 161 209 227 163 225
169 170 154 145 179 179 103 143 174 167 181 184 177 171 161 168 171 133 184 195 181 179 193 123 160 189 155 175 154 159 243 237 217 174 162 166 156 236 186 186 215 172 171
173 176 167 178 175 153 169 169 178 180 177 168 165 178 183 180 134 195 122 177 162 123 149 159 137 157 170 198 180 157 163 165 200 234 202 182 250 344 180 281 245 168 214
166 179 163 158 150 174 179 179 171 166 171 176 185 188 134 130 159 136 144 128 177 142 204 151 178 147 214 214 178 375 171 143 237 276 237 317 273 247 241 248 306 247 206
154 182 179 176 166 162 173 188 189 186 191 199 107 103 161 147 129 194 133 135 163 137 192 210 235 237 197 237 300 174 321 296 265 262 333 312 403 391 379 280 367 367 411
188 186 174 167 167 181 189 192 193 180 188 191 127 102 126 133 168 154 216 137 141 147 216 133 218 303 296 434 331 243 424 384 432 421 384 422 409 389 406 361 364 351 356
149 150 191 192 194 193 161 163 186 202 192 135 128 121 173 155 201 151 146 179 226 138 270 358 372 243 241 356 336 397 402 407 410 411 411 417 418 407 354 399 361 350 366
188 188 191 198 200 125 126 148 172 170 133 125 132 135 134 93 132 163 155 127 248 162 392 408 408 341 307 334 396 395 400 405 405 402 349 345 327 321 320 278 322 334 390
163 182 178 181 156 210 151 120 183 197 128 146 158 136 178 153 215 285 136 240 413 283 407 397 395 390 387 388 390 385 380 360 325 321 324 323 325 342 342 403 408 391 392
167 177 204 149 107 180 126 201 192 159 134 130 138 192 176 206 391 421 403 398 388 389 385 387 385 378 379 377 379 390 394 394 398 394 392 387 395 410 424 383 395 399 399
200 203 155 201 194 167 176 172 135 187 196 143 211 181 294 358 419 408 393 388 381 380 378 383 385 376 334 298 291 299 333 373 377 374 375 375 361 369 342 302 395 433 439
144 128 188 202 208 191 159 216 190 219 254 258 282 301 414 424 411 397 384 376 377 380 388 384 381 316 296 315 369 373 372 370 370 368 365 361 363 357 360 359 351 363 374
162 153 124 212 188 231 197 235 228 261 191 288 314 408 425 415 400 380 378 383 386 382 381 376 365 362 362 362 365 365 361 356 355 353 355 351 339 341 343 348 349 313 386
153 176 225 222 214 195 229 245 254 270 286 332 402 418 407 394 386 385 386 376 373 361 353 356 364 520 537 525 513 502 491 453 351 342 344 342 342 325 330 332 339 294 290
141 181 215 199 224 217 163 214 265 289 404 426 411 398 388 385 379 380 385 351 343 346 356 512 509 508 498 486 478 469 458 446 447 443 357 354 332 339 319 324 332 351 396

GFSMW_2pvu_pres_003.txt.gz
Presure
161 149 171 158 143 162 163 164 172 157 158 165 161 150 98 156 160 157 155 156 152 160 157 160 138 152 128 130 157 104 158 167 170 163 150 154 142 168 181 169 150 161 183
157 155 172 155 145 146 150 154 159 161 169 169 160 167 164 166 161 150 142 124 134 150 157 140 128 168 165 103 148 115 144 156 161 166 167 167 167 170 181 139 159 177 185
165 159 139 155 165 150 150 155 156 140 156 153 162 167 164 160 130 134 135 136 164 146 140 152 159 111 152 161 156 162 165 174 167 159 168 166 167 181 169 161 182 182 72
158 142 130 131 144 159 159 104 101 101 107 90 102 171 141 128 133 152 159 163 145 175 174 110 150 153 154 169 137 178 176 165 158 154 167 154 184 180 169 177 175 185 65
121 148 144 153 164 102 108 97 99 104 168 174 152 125 98 131 160 168 132 143 145 168 156 161 178 180 166 169 157 170 173 162 154 169 168 189 172 169 191 188 171 67 61
155 149 159 178 164 178 95 93 101 103 124 159 117 162 152 171 135 153 162 171 176 138 161 161 153 149 162 176 175 159 159 172 174 188 174 171 178 114 184 175 194 171 190
167 143 129 95 96 95 98 151 148 96 168 143 163 146 159 150 152 144 170 169 150 154 176 158 157 181 173 172 166 155 171 154 190 178 180 182 161 188 199 184 206 182 159
162 164 165 102 169 165 106 172 156 168 165 146 148 171 169 151 157 142 159 174 175 174 152 177 176 169 165 175 161 170 189 186 176 175 176 187 190 171 195 204 202 166 205
120 153 160 180 173 179 176 163 152 159 157 172 175 163 156 168 141 170 156 168 160 179 172 177 179 171 166 172 189 178 180 126 183 192 176 194 157 139 205 212 210 200 167
132 133 144 164 168 153 176 174 173 170 167 159 170 150 123 159 179 168 179 179 177 177 173 170 174 181 179 158 158 180 183 205 169 148 135 152 152 146 241 212 168 174 169
173 118 177 157 185 176 176 173 167 146 132 174 144 173 175 168 176 178 179 173 171 170 169 177 190 197 131 193 205 123 195 187 206 165 179 208 161 161 200 159 151 154 178
152 157 166 171 138 158 152 178 174 172 180 178 174 180 179 179 188 171 169 174 191 192 193 135 114 195 135 190 178 130 152 135 150 135 169 139 141 158 264 230 300 165 168
202 174 171 139 133 181 179 180 127 168 179 177 178 165 169 176 178 192 192 188 183 143 196 135 208 150 144 135 153 137 145 142 161 269 146 158 249 181 259 182 187 434 427
196 195 165 182 170 163 180 165 180 182 180 189 169 176 173 188 192 194 192 182 146 211 141 144 219 131 144 189 148 150 179 124 193 142 195 187 244 424 421 264 383 420 375
199 189 195 154 180 135 189 183 190 172 178 176 186 190 187 199 181 173 203 188 207 193 126 140 138 136 144 214 131 140 222 360 358 353 412 400 394 394 376 396 402 409 414
157 176 187 187 180 176 168 188 183 170 190 185 146 127 167 148 209 210 206 165 174 131 144 149 148 139 154 312 143 268 419 405 403 404 402 397 392 392 393 394 395 404 406
181 199 199 177 167 169 172 172 190 180 162 172 161 124 143 121 168 139 153 225 179 135 130 131 226 247 390 242 404 400 287 396 392 392 390 333 378 379 383 386 392 395 379
163 193 199 180 199 196 195 183 143 174 181 202 207 144 146 182 133 164 213 158 202 235 155 232 248 347 418 402 395 394 393 393 391 397 395 379 382 384 334 365 346 320 315
196 183 160 190 191 149 181 200 200 108 157 222 126 171 129 188 204 216 255 187 280 288 254 374 437 422 407 396 392 393 400 393 395 389 389 386 318 296 291 303 386 388 390
208 188 130 95 207 154 173 155 95 148 144 128 170 189 193 182 205 200 266 285 214 337 441 432 413 398 393 389 386 387 384 389 381 372 366 361 365 374 385 384 377 374 375
180 162 134 166 158 132 137 234 189 116 210 192 156 211 228 189 220 223 217 336 407 435 415 404 397 390 385 377 369 365 365 370 420 441 440 433 371 364 368 371 369 367 374
191 183 125 170 164 177 118 150 193 92 203 211 195 188 200 246 278 302 327 345 424 415 404 397 386 368 360 326 195 365 540 532 525 523 514 504 497 450 361 358 356 351 354
135 152 128 210 197 166 174 182 210 187 180 228 190 175 261 236 255 324 334 421 411 403 388 373 369 368 183 191 425 415 495 489 482 475 469 468 468 472 359 349 345 342 338
132 123 168 175 185 192 203 180 187 219 217 238 155 232 266 285 310 346 415 410 398 381 370 368 372 178 190 415 396 450 448 440 439 440 439 438 442 447 367 343 337 331 328
224 171 191 193 169 196 192 188 173 214 153 182 264 281 287 289 363 403 405 399 379 366 367 384 180 189 406 406 375 423 415 412 412 408 410 416 424 431 422 343 333 327 324
195 198 167 177 186 200 207 116 129 237 246 266 277 288 293 400 414 402 317 376 362 356 356 444 423 401 389 395 370 374 386 386 386 390 401 410 419 428 341 332 331 316 321

GFSMW_2pvu_pres_006.txt.gz
Presure
138 196 191 179 171 164 177 176 143 162 154 158 161 157 160 161 167 146 166 161 161 154 153 162 153 134 161 164 109 166 143 171 163 156 160 153 173 185 168 162 162 151 143
132 170 188 172 173 148 177 172 161 153 146 153 101 139 100 95 100 113 168 166 169 139 129 131 137 158 132 143 152 171 153 166 166 160 155 180 160 167 164 164 163 156 186
136 135 160 169 165 161 148 158 163 161 153 154 100 100 101 109 110 125 150 166 160 135 133 153 174 163 163 137 177 172 175 145 150 157 162 172 170 161 150 148 168 182 182
129 121 154 170 167 122 125 126 138 113 118 94 98 102 103 97 177 158 169 157 152 141 142 157 160 149 146 169 173 173 172 156 152 150 180 177 174 168 155 183 176 175 160
128 185 107 109 166 123 146 149 164 171 98 98 101 101 98 173 159 164 159 155 170 159 182 166 158 165 132 167 166 155 159 172 172 182 167 167 184 179 189 179 176 188 169
179 105 142 110 110 156 130 157 95 91 98 101 128 151 178 154 168 148 171 175 167 137 164 139 165 165 151 167 178 177 176 177 174 180 176 189 182 174 186 193 151 142 189
165 158 161 140 154 159 148 149 136 158 166 177 174 169 163 152 158 160 175 165 159 183 154 171 177 171 178 168 170 172 172 186 190 188 183 187 183 196 150 201 193 130 178
196 198 141 128 152 158 168 163 162 154 176 164 170 170 164 171 174 139 172 180 174 173 177 157 164 171 170 162 179 192 182 115 192 119 158 125 154 204 186 127 126 169 159
185 175 162 205 125 138 120 114 160 159 168 152 161 170 170 164 172 141 182 178 162 160 170 187 164 165 189 180 182 188 151 183 162 214 214 154 138 228 201 207 162 137 180
181 98 151 125 132 133 159 100 142 166 164 173 172 152 179 185 184 164 158 165 179 179 161 169 181 183 192 103 106 176 162 186 120 124 134 137 176 159 138 185 127 213 162
159 186 121 179 189 194 200 186 169 165 170 122 157 157 155 174 167 169 189 180 177 170 183 191 186 124 144 181 148 118 159 139 144 167 204 144 143 151 205 205 157 163 162
197 190 189 182 185 197 202 201 198 177 151 180 130 178 169 166 193 165 170 182 190 190 152 180 130 115 136 136 172 135 207 137 132 132 138 139 151 145 150 159 167 393 411
119 186 176 177 180 187 194 202 203 146 181 186 193 174 192 162 165 176 179 191 153 136 121 177 195 163 142 219 196 221 202 189 219 275 166 150 293 429 416 408 408 406 407
189 200 197 189 193 196 187 167 181 195 151 176 199 185 183 182 180 193 176 123 175 147 164 187 176 166 173 193 147 162 206 268 235 245 331 427 418 409 378 393 392 392 326
172 167 177 173 181 169 179 191 182 183 181 201 197 184 179 192 164 154 170 196 180 159 136 144 137 196 204 221 223 192 230 256 459 445 435 422 407 394 391 389 385 384 388
166 184 190 168 141 193 167 198 188 168 186 201 201 157 151 178 98 114 158 222 142 213 167 144 168 193 242 240 232 229 446 403 429 421 409 399 397 393 386 383 384 391 389
180 142 165 189 187 174 210 178 194 193 177 127 157 187 148 180 141 148 204 195 184 201 213 189 206 221 239 248 358 297 433 423 410 397 388 384 377 376 365 328 379 382 378
194 193 135 170 191 205 178 205 134 97 212 201 158 131 167 131 164 190 182 194 212 210 200 213 222 262 282 420 435 426 408 389 378 374 373 376 191 203 376 381 382 374 366
203 156 215 219 214 207 198 212 114 213 114 141 186 225 141 209 191 209 220 226 218 233 200 236 292 327 439 434 418 399 392 381 447 489 231 191 197 506 516 521 524 528 529
220 223 211 195 210 208 202 213 209 128 196 138 135 220 211 204 176 228 218 201 204 216 217 231 310 321 431 414 394 387 386 468 435 183 184 217 472 493 491 493 498 505 503
213 213 214 215 210 216 203 156 127 160 169 192 170 209 197 119 187 207 216 250 242 273 320 326 435 426 415 392 382 379 444 412 403 394 392 441 447 456 460 464 472 480 482
214 148 173 203 197 189 123 144 175 199 140 195 193 177 207 151 169 189 200 220 235 288 305 437 424 417 391 377 377 442 415 385 381 378 383 411 416 426 433 440 448 453 460
202 203 211 217 126 132 168 199 203 177 193 195 204 181 116 197 189 204 256 271 295 301 435 424 420 396 376 375 437 429 408 368 379 374 369 392 399 406 416 427 436 441 351
151 126 127 127 167 187 218 151 169 202 205 182 191 111 193 189 193 212 268 296 292 439 418 417 406 381 373 380 424 431 407 386 375 366 362 373 387 399 413 425 428 345 336
140 124 153 221 214 198 174 166 202 179 185 173 162 207 228 233 246 262 292 279 407 414 413 410 390 374 375 441 410 380 423 391 373 367 362 367 377 397 413 420 358 337 328
119 189 196 188 184 147 188 186 183 197 203 195 197 204 226 215 263 287 314 443 367 354 347 380 366 370 373 426 395 348 420 360 358 369 361 362 383 406 419 346 332 321 322

GFSMW_2pvu_pres_012.txt.gz
Presure
173 176 145 237 134 174 147 203 149 179 179 189 171 171 165 178 184 176 168 96 100 99 96 157 161 157 163 176 174 170 128 172 139 117 147 139 172 184 155 182 149 139 164
124 188 212 198 122 163 142 122 175 183 193 189 177 180 167 158 135 133 134 97 108 113 174 178 179 178 171 176 164 173 165 153 156 164 157 143 173 185 154 159 176 188 175
191 195 170 248 171 193 184 168 187 183 185 145 174 180 170 120 125 114 95 171 170 170 169 144 162 174 160 162 154 155 155 167 168 153 170 177 168 157 152 165 167 166 169
114 188 172 204 204 213 207 211 129 141 172 188 148 110 191 169 150 148 158 162 164 169 136 130 165 174 174 168 150 167 153 164 183 179 161 182 185 169 176 171 169 175 182
188 164 173 196 120 204 120 116 103 151 181 142 110 152 125 170 164 161 154 113 143 153 169 162 169 161 134 152 145 187 179 147 171 183 168 180 175 172 174 168 80 185 114
174 182 191 184 188 189 176 209 204 194 188 184 141 128 147 137 124 152 160 165 148 172 143 162 146 151 171 185 160 161 191 185 199 200 196 175 169 178 141 179 147 129 163
172 182 175 185 192 195 194 195 202 202 202 185 188 170 133 176 151 137 144 138 146 158 141 169 162 159 165 194 202 201 197 167 202 208 174 156 185 161 182 161 196 233 128
174 182 184 178 182 188 184 191 191 197 199 201 201 170 125 190 190 135 196 189 145 210 206 204 203 161 196 193 188 190 179 196 197 149 161 154 141 193 190 233 159 170 159
179 172 190 174 166 185 184 187 188 140 190 188 114 117 189 187 192 196 193 192 193 199 200 144 192 196 194 184 160 210 180 200 183 149 138 197 172 163 205 171 217 211 210
168 170 174 191 179 165 173 187 150 191 189 186 185 185 189 188 190 189 183 184 191 189 194 204 199 127 166 182 202 154 128 183 142 165 159 125 194 183 215 221 193 207 239
173 167 171 158 167 167 176 175 186 184 183 182 185 193 187 189 189 186 191 144 187 195 210 162 196 170 159 208 134 206 146 154 222 137 225 217 202 216 211 225 229 244 240
189 198 170 179 177 177 179 163 181 170 161 173 183 180 173 183 192 143 177 195 208 223 107 222 225 164 143 156 150 210 146 143 188 203 207 183 213 222 226 231 229 242 452
170 176 184 169 159 167 188 180 170 172 175 164 186 126 183 164 171 195 196 213 151 117 206 170 206 134 194 181 211 160 162 186 200 125 217 213 229 235 254 238 275 445 424
179 165 165 181 185 143 180 188 177 195 183 170 151 170 182 184 204 194 222 212 101 192 216 134 174 138 222 176 129 188 197 165 228 223 227 229 231 238 238 385 434 416 405
188 188 181 183 191 185 190 187 189 189 193 144 131 172 188 201 205 225 225 146 199 169 135 154 184 232 141 132 174 202 125 214 225 216 242 240 241 381 447 428 410 404 451
169 188 183 175 181 177 174 182 192 162 127 140 197 201 205 213 228 230 126 220 127 134 252 232 185 126 215 125 213 220 212 225 214 228 265 345 393 382 424 405 397 448 444
190 172 172 186 196 196 197 171 144 183 201 200 200 222 230 224 202 126 189 130 239 233 217 173 124 161 193 216 217 211 214 237 228 293 343 385 429 422 402 395 448 449 420
187 193 195 194 162 170 141 170 189 198 182 188 220 227 223 215 169 128 194 224 218 212 214 147 191 204 195 204 217 215 234 231 271 394 383 395 421 398 390 445 420 411 402
196 161 188 172 157 142 192 194 193 205 205 226 236 151 128 126 146 228 211 205 213 209 139 200 212 213 198 222 217 230 257 300 403 383 370 418 395 383 437 428 404 436 348
139 186 133 189 192 197 195 204 237 232 232 133 126 126 122 243 204 209 175 197 170 150 207 216 214 195 216 216 227 272 335 456 384 368 421 395 380 388 435 449 438 373 363
133 156 158 196 195 190 172 216 231 217 156 148 124 138 211 207 200 187 187 201 165 205 195 205 202 212 224 232 286 358 451 388 370 421 399 380 393 427 421 439 408 360 377
193 199 198 199 187 241 180 223 137 212 168 125 186 211 207 183 214 159 149 207 204 213 202 204 219 225 238 289 324 452 436 366 425 406 377 372 421 427 443 469 382 366 400
201 216 143 237 221 216 136 137 184 135 159 206 204 160 181 199 203 199 204 189 204 202 215 223 225 282 324 320 454 442 362 424 410 381 367 421 405 423 465 448 359 404 346
240 232 224 222 221 135 212 165 155 149 220 212 190 188 175 199 200 205 188 162 209 221 226 245 310 334 420 459 403 358 431 410 386 367 428 399 471 461 434 388 413 322 336
221 225 230 131 132 215 234 151 188 205 200 193 181 148 186 192 191 191 176 205 225 226 272 316 410 389 464 375 353 436 418 390 369 438 400 425 414 424 373 427 339 329 324
232 203 131 142 200 190 203 220 201 193 179 127 135 205 188 195 202 196 215 222 251 297 359 370 405 458 365 356 426 415 389 365 413 409 413 413 438 388 493 321 324 323 316

GFSMW_2pvu_pres_015.txt.gz
Presure
217 80 203 89 96 196 208 227 105 171 122 117 198 167 180 179 190 175 176 170 95 143 121 145 96 133 178 174 172 132 174 144 176 173 175 167 150 149 145 156 156 152 159
95 103 168 185 192 144 159 217 123 134 152 187 178 133 184 169 183 181 142 118 134 115 174 148 152 173 172 171 170 176 169 174 173 141 165 162 156 157 169 184 185 180 168
100 103 188 188 115 191 203 103 213 210 207 202 204 182 178 152 187 161 176 121 119 173 160 156 154 110 153 158 166 168 154 149 169 164 151 162 162 160 166 156 172 182 187
180 190 193 186 193 187 198 111 193 159 208 205 202 162 116 170 135 183 128 159 174 150 127 137 152 165 154 169 149 131 169 127 164 152 152 164 195 161 156 193 184 109 98
187 181 181 159 125 170 170 192 213 204 201 201 121 167 198 190 182 187 189 127 136 137 149 138 157 141 145 141 154 152 153 155 186 202 192 160 197 187 191 191 198 190 187
191 181 189 171 179 182 191 176 174 204 213 118 205 205 206 196 196 193 182 182 179 156 172 173 175 135 190 194 181 136 202 198 198 197 195 207 205 173 193 220 184 198 191
189 176 179 175 180 178 170 181 186 183 191 193 195 179 196 198 196 195 199 170 185 195 194 193 161 196 195 187 184 194 190 192 183 205 219 206 222 207 151 206 179 144 123
178 171 175 184 168 173 175 176 186 176 191 198 165 188 190 194 192 135 174 191 192 194 192 201 201 199 136 157 193 187 193 204 223 222 221 179 212 197 213 217 205 213 239
180 171 174 177 172 172 165 179 171 161 179 175 170 186 125 192 193 191 193 193 200 201 195 192 190 134 196 189 173 182 153 220 218 142 136 153 217 129 173 220 214 174 235
172 160 116 154 111 169 174 166 160 184 177 148 176 178 175 182 163 184 181 178 181 183 184 152 171 173 181 149 232 219 218 196 219 140 195 210 162 235 211 148 227 221 208
168 200 195 152 164 160 167 177 161 191 175 181 170 173 174 196 170 165 172 188 182 185 137 190 169 203 106 205 146 181 207 149 216 179 211 135 148 153 134 217 214 225 232
163 176 188 180 94 132 164 180 177 179 171 172 162 172 186 189 179 178 174 187 186 195 174 203 227 119 224 158 208 222 215 192 241 216 202 214 120 205 193 227 230 231 242
89 170 190 163 160 185 146 171 201 162 172 178 183 180 172 137 177 181 155 195 193 204 210 236 236 206 224 176 207 161 237 213 125 215 153 139 194 215 214 242 240 248 311
174 186 134 174 97 170 178 186 170 181 181 178 174 199 192 180 180 131 180 196 205 212 185 236 227 219 134 141 236 217 210 190 213 178 205 193 214 230 244 245 251 475 399
161 166 171 186 190 188 189 182 189 192 194 182 182 180 181 147 186 193 191 206 213 239 238 220 142 135 262 209 194 162 206 190 118 202 206 223 239 244 253 338 466 394 435
168 174 172 172 171 173 162 181 181 180 176 178 193 125 183 193 169 203 210 216 241 193 124 135 239 225 206 215 194 153 211 112 213 220 234 235 241 253 460 458 383 435 411
176 167 166 164 164 183 182 186 192 195 190 130 151 171 193 193 202 228 190 213 129 123 166 226 217 194 205 200 210 207 211 208 225 232 241 249 307 456 450 378 431 410 380
184 164 167 175 176 185 188 192 183 128 137 196 193 195 196 202 199 227 127 126 137 239 213 205 204 186 203 202 204 209 200 218 231 239 255 427 461 410 382 429 410 381 409
172 178 183 186 187 188 137 129 135 188 201 200 197 193 230 142 154 137 127 217 246 206 209 196 193 202 199 202 212 221 225 234 245 276 439 460 369 368 426 407 385 432 424
183 187 189 192 176 193 192 140 209 200 190 195 203 129 135 230 139 234 134 227 179 211 204 193 197 198 204 212 225 228 242 271 335 463 438 363 427 419 398 378 426 452 483
194 197 124 129 198 124 210 205 190 189 197 199 158 231 125 172 206 254 209 170 208 200 194 194 205 206 216 224 231 244 357 363 446 378 353 426 412 394 373 402 437 438 438
240 203 206 208 192 211 186 193 193 202 150 138 152 210 251 241 211 216 213 203 131 197 205 208 214 218 224 235 281 398 375 368 367 407 425 408 389 369 425 427 434 417 439
152 224 218 212 194 199 194 202 234 190 142 223 240 176 206 229 214 158 200 187 201 207 210 214 220 230 249 367 426 393 357 357 430 421 405 383 366 429 422 443 404 428 326
203 184 197 188 195 187 240 237 231 137 245 165 209 223 213 203 199 186 194 206 204 206 217 225 241 307 303 407 420 360 376 429 418 400 377 387 434 418 439 413 398 310 327
131 174 199 236 235 233 235 194 132 187 207 226 209 204 208 206 188 205 205 205 210 219 233 256 304 377 471 458 399 437 428 414 394 376 486 442 412 433 420 371 307 322 321
235 236 235 233 229 204 139 188 209 220 209 205 202 205 192 196 201 211 212 213 219 247 284 299 358 437 455 444 435 421 401 379 464 478 451 410 407 424 347 306 321 315 388

GFSMW_2pvu_pres_018.txt.gz
Presure
208 92 93 85 91 91 183 101 210 144 170 236 214 146 121 120 200 194 188 187 161 174 143 186 182 174 167 164 182 175 155 115 167 148 145 159 133 162 157 152 166 147 154
108 94 176 95 98 85 99 102 102 121 192 189 223 204 197 203 175 179 174 183 112 160 176 122 184 143 144 164 126 151 118 144 138 152 137 144 171 170 147 147 156 163 164
94 88 185 207 201 161 170 99 190 184 199 214 195 211 205 206 202 196 161 142 109 176 163 183 192 138 131 136 143 153 152 141 144 158 150 151 172 132 194 197 200 200 200
201 202 195 142 147 194 194 186 184 193 189 192 213 216 209 205 209 210 191 122 195 196 189 186 184 183 186 180 180 151 162 183 197 146 204 189 200 201 197 197 195 194 192
200 202 162 155 161 189 183 183 185 171 122 188 132 203 211 209 212 136 123 200 207 202 195 194 202 177 202 201 201 199 198 195 189 188 191 191 188 189 201 185 181 190 204
197 189 174 192 190 186 184 185 180 185 183 174 187 177 188 183 193 192 188 191 190 191 193 195 117 194 193 191 192 195 199 202 203 203 199 192 195 200 186 189 213 222 173
195 196 188 189 179 184 184 180 180 172 177 179 182 188 178 183 176 160 169 186 191 191 196 144 197 192 198 189 184 197 189 187 178 175 169 176 197 222 211 239 234 239 206
198 189 185 118 111 180 180 118 174 145 173 168 109 180 160 194 181 183 178 180 171 172 179 180 173 169 181 179 174 179 176 132 172 180 235 238 232 228 227 225 159 152 237
188 189 182 180 183 182 99 176 172 176 168 172 175 168 181 166 186 170 177 166 170 165 183 176 191 179 181 184 193 145 201 214 244 238 234 229 148 224 219 163 182 247 241
128 185 181 183 179 90 170 180 169 179 162 178 177 169 180 185 172 173 163 181 178 184 181 176 182 189 171 159 200 207 213 241 237 229 212 149 201 144 196 233 226 98 189
190 182 183 174 168 157 120 179 183 187 166 170 174 174 172 169 184 183 177 183 184 196 201 207 200 185 190 202 206 214 239 237 222 171 211 155 208 226 221 217 208 223 214
188 186 178 176 168 181 182 188 180 191 163 90 180 172 186 176 182 197 167 182 177 191 199 204 197 148 192 214 216 240 240 215 201 151 167 218 220 219 107 198 215 211 223
184 170 181 174 168 99 113 170 174 193 174 182 185 182 169 169 191 190 199 199 200 205 201 147 198 214 205 219 242 240 138 140 238 246 217 212 202 214 211 214 219 230 248
181 176 181 183 133 165 171 162 166 166 173 183 166 171 176 176 180 171 191 202 190 150 205 204 203 209 237 194 145 127 184 243 213 126 212 197 212 220 216 227 242 258 292
179 173 167 186 171 170 172 160 160 183 162 167 170 172 175 185 189 197 191 147 165 212 203 207 222 143 126 130 211 246 231 184 197 214 211 213 215 226 236 252 269 392 385
186 179 181 177 179 180 173 173 170 170 170 170 172 172 182 195 193 135 136 210 196 203 210 196 248 136 131 242 237 207 205 218 203 210 211 216 229 246 262 402 382 370 449
173 176 178 181 186 191 194 193 195 192 182 170 180 192 194 171 153 207 232 196 209 209 134 178 172 155 253 226 206 153 206 205 211 205 222 237 252 335 484 381 446 446 423
180 179 182 187 183 181 180 178 175 172 179 190 193 162 132 226 220 223 210 206 234 131 127 175 246 220 204 221 214 198 208 203 214 232 242 278 485 473 449 453 445 425 393
175 174 175 176 176 179 179 183 187 190 193 201 234 224 229 234 208 210 205 135 139 242 215 225 207 207 214 184 198 210 200 220 237 246 318 473 466 450 445 437 422 390 399
177 177 181 181 183 186 186 190 194 156 196 128 238 201 221 203 203 222 135 149 238 217 221 202 213 211 212 200 206 221 236 245 298 332 468 453 442 438 424 404 385 479 427
185 183 186 190 191 175 161 200 223 245 242 235 223 219 202 220 136 142 240 227 216 215 214 201 212 202 209 208 222 236 269 325 477 467 455 443 429 410 388 465 465 427 433
183 189 195 197 201 205 233 246 237 234 224 222 204 203 181 139 135 234 214 209 209 212 211 207 203 209 213 225 237 303 333 466 458 448 435 415 395 463 486 446 424 410 410
198 203 202 196 242 241 235 148 145 217 202 199 240 238 137 134 211 217 208 211 213 207 203 206 217 214 228 247 309 316 461 448 440 421 396 437 492 470 422 428 399 401 327
202 137 163 189 219 222 143 217 202 209 240 223 150 247 205 200 209 209 211 198 208 204 211 218 217 230 279 325 469 457 447 430 408 407 503 476 450 414 431 402 371 317 323
232 195 172 207 219 209 202 219 239 147 178 200 238 202 208 201 200 202 125 209 206 217 210 226 245 301 442 424 453 441 420 403 507 495 460 434 413 407 399 352 315 332 334
222 214 208 202 202 244 241 175 170 274 242 204 171 206 206 200 200 208 206 207 216 209 227 269 303 355 464 448 435 411 487 493 480 448 528 438 393 395 334 332 390 407 308